Weather in Shiraz

Iran     29˚37′03″N   52˚30′17″E
temp.,
°C
wind,
m/s
gust,
m/s
humid.,
%
clouds,
%
prec.,
mm/h
press.,
hPa
HPBL,
m
1 december, tue
tue100:30+9˚wsw11770 0.0 101922
03:30+8˚wsw11750 0.0 101922
06:30+9˚sw127358 0.0 102022
09:30+12˚w226061 0.1 1021304
12:30+11˚ssw127098 0.4 1019215
15:30+11˚sw127682 1.6 1018280
18:30+10˚wsw118346 0.0 102022
21:30+9˚w118223 0.0 102122
2 december, wed
wed200:30+9˚wsw018139 0.0 102022
03:30+10˚sw117969 0.1 102022
06:30+10˚ssw1189100 0.8 102151
09:30+11˚e117869 0.8 1022286
12:30+15˚se13570 0.1 1019875
15:30+16˚sw24451 0.2 10171303
18:30+14˚wsw22610 0.0 101824
21:30+12˚wsw12700 0.0 101922
3 december, thu
thu300:30+11˚w12710 0.0 101922
03:30+10˚w117014 0.0 101822
06:30+10˚ssw117551 0.3 102025
09:30+12˚ssw116234 0.3 1021299
12:30+15˚wnw135218 0.1 10181177
15:30+16˚w254523 0.0 10161333
18:30+14˚w12615 0.0 101823
21:30+12˚w126419 0.0 101823
4 december, fri
fri400:30+11˚w117095 0.0 101822
03:30+10˚wnw117180 0.0 101722
06:30+9˚s007323 0.0 101822
09:30+14˚ssw015340 0.0 1019229
12:30+16˚wnw1347100 0.0 10171275
15:30+11˚nnw4579100 2.3 1017367
18:30+9˚nw2391100 7.6 1018251
21:30+9˚ene1191100 11.1 1019180
5 december, sat
sat500:30+8˚ese1194100 6.5 1017170
03:30+8˚w3397100 22.7 1016168
06:30+9˚ese1194100 5.6 1017136
09:30+11˚sse228379 5.7 1017379
12:30+15˚nnw035941 0.1 1014840
15:30+16˚wsw3104346 0.1 10121768
18:30+13˚wsw227189 0.0 101353
21:30+11˚sw128379 0.0 101426